STARLINK-1337, 45582

Orbit data source: Space-Track

STARLINK-1337, 45582 is a payload satellite owned by SpaceX/Seattle (US) in LEO that was launched on Wed, 22 Apr 2020 UTC via an FALCON 9 launch vehicle from the Air Force Eastern Test Range (AFETR). Payload-class satellites include a variety of spacecraft equipped with specific instruments for various scientific and technological missions. These include communications satellites like Starlink; space stations such as the ISS; scientific satellites like the Hubble; Earth observation satellites from companies like Planet Labs, Umbra, and HawkEye 360; GPS; miniature CubeSats for education and research; and military/defense satellites.

Loading next visibility...
Identifier
45582, 2020-025BD
Orbit
LEO
Country
Flag of USUS
Related business
Manufacturer
SpaceX/Seattle
Mission
Operational Commercial Communications
Bus & Motor
STARLINK, Unknown motor
Mass
260 kg wet, ~248 kg dry
Launch date (UTC)
2020-04-22 (5 years ago)
Launch vehicle
FALCON 9
Launch site
Air Force Eastern Test Range (AFETR)
Object type
Payload
Rocket body
Debris
Shape & HBR
Box + 1 Pan, 10.1 m
Radar Cross Section
13.562 m², Large (>1 m²)

Expand to show TLE details & history
Last TLE update: 1 day ago

TLE from 1 day ago
0 STARLINK-1337
1 45582U 20025BD  25287.52336459 -.00000549  00000-0 -17999-4 0  9993
2 45582  53.0556  12.7852 0001333  81.3401 278.7739 15.06389603303473
Epoch: 2025-10-14T12:33Z
TLE epoch observation values (Epoch: 2025-10-14T12:33:38.700Z)
Latitude
-0.00002°
Longitude
161.06336°
Altitude
547.982 km
Speed
7.589 km/s
True Right ascension
00h 51m 08s
True Declination
0° 00' 00"
Sunlit
Object was in full shadow at epoch
Visualization orbit readout
Latitude
Unknown
Longitude
Unknown
Altitude
Unknown
Speed
Unknown
Apparent Right ascension
Unknown
Apparent Declination
Unknown
Sunlit
N/A
Visualization observer readout
Local Sidereal Time
09:02:44
Azimuth
Unknown
Elevation
Unknown
Doppler factor
Unknown
Orbital elements
Apogee altitude
548.437 km
Perigee altitude
546.591 km
Semi-major axis
6,925.651 km
Eccentricity
0.00013
Inclination
53.0556°
RAAN
12.7852°
Arg. of periapsis
81.3401°
True anomaly
278.7588°
Mean anomaly
278.7739°
Eccentric anomaly
278.76635°
Mean motion
3.76576 °/min
Orbital period
95.6 mins
BSTAR
-0.000017999
Loading maneuver chart data...
Computing Atmospheric mass density...

Documentation

Showing up to 5 results
|